Location: Croydon
(51.3762°N, 0.0982°W)
Time: 20:53:22
(UTC+00:00)

Altair - Pass Details

Date: 18 November 2019
Orbit: 1502 x 1682 km, 47.2° (Epoch: 09 December)

Event Time Altitude Azimuth Distance (km) Brightness Sun altitude
Rises 02:21:53 0° 205° (SSW) 4,642 - -45.5°
Reaches altitude 10° 02:25:22 10° 195° (SSW) 3,652 - -45.1°
Maximum altitude 02:32:54 30° 139° (SE) 2,438 - -44.0°
Exits shadow 02:33:59 29° 127° (SE) 2,470 8.6 -43.9°
Drops below altitude 10° 02:40:28 10° 83° (E) 3,675 10.0 -43.0°
Sets 02:43:58 0° 74° (ENE) 4,675 10.8 -42.5°
